DW2537 Weather Reports


Display with metric or nautical units.
time (UTC)temp
F
wind
direction
speed
MPH
gust
MPH
rain 1hr
in
rain 24hr
in
rain mn
in
humidity
%
barometer
mb
20260510211535 65 0 0.0 2.0 0.07 0.07 0.07 87 1013.5
20260510211018 66 15 0.0 2.0 0.03 0.03 0.03 85 1013.1
20260510210517 67 71 0.0 2.0 0.03 0.03 0.03 80 1012.6
20260510210032 68 0 0.0 1.0 0.03 0.03 0.03 81 1012.6
20260510205519 69 0 0.0 14.0 0.03 0.03 0.03 75 1012.7
20260510205019 71 65 3.0 14.0 0.03 0.03 0.03 69 1012.8
20260510204537 72 205 0.0 2.0 0.00 0.00 0.00 71 1012.7
20260510204018 72 0 0.0 2.0 0.00 0.00 0.00 67 1012.2
20260510203518 73 0 0.0 2.0 0.00 0.00 0.00 69 1012.0
20260510203038 73 173 0.0 2.0 0.00 0.00 0.00 70 1011.9
20260510202518 74 185 0.0 2.0 0.00 0.00 0.00 65 1011.9
20260510202018 75 129 0.0 4.0 0.00 0.00 0.00 64 1012.0
20260510201540 76 196 0.0 4.0 0.00 0.00 0.00 59 1012.0
20260510201019 76 179 1.0 6.0 0.00 0.00 0.00 54 1011.9
20260510200519 77 88 0.0 6.0 0.00 0.00 0.00 51 1011.8
20260510200035 78 101 1.0 10.0 0.00 0.00 0.00 48 1011.9
20260510195518 78 61 1.0 10.0 0.00 0.00 0.00 48 1011.9
20260510195019 79 223 1.0 4.0 0.00 0.00 0.00 46 1011.9
20260510194534 80 211 1.0 5.0 0.00 0.00 0.00 50 1012.0
20260510194019 81 24 1.0 5.0 0.00 0.00 0.00 48 1012.1
20260510193520 82 299 0.0 4.0 0.00 0.00 0.00 45 1012.1
20260510193032 83 229 0.0 2.0 0.00 0.00 0.00 42 1012.2
20260510192521 83 187 1.0 3.0 0.00 0.00 0.00 37 1012.4
20260510192019 83 132 0.0 5.0 0.00 0.00 0.00 41 1012.5
20260510191549 83 192 1.0 5.0 0.00 0.00 0.00 39 1012.5
20260510191019 83 207 2.0 5.0 0.00 0.00 0.00 41 1012.4
20260510190518 83 19 1.0 5.0 0.00 0.00 0.00 38 1012.4
20260510190038 83 198 1.0 7.0 0.00 0.00 0.00 37 1012.3
20260510185518 83 19 2.0 7.0 0.00 0.00 0.00 38 1012.4
20260510185023 82 38 1.0 5.0 0.00 0.00 0.00 38 1012.5
20260510184539 82 45 1.0 5.0 0.00 0.00 0.00 40 1012.6
20260510184019 81 103 2.0 5.0 0.00 0.00 0.00 43 1012.6
20260510183522 81 209 1.0 8.0 0.00 0.00 0.00 38 1012.7
20260510183034 82 173 2.0 8.0 0.00 0.00 0.00 41 1012.7
20260510182519 81 178 2.0 7.0 0.00 0.00 0.00 38 1012.6
20260510182020 81 344 1.0 4.0 0.00 0.00 0.00 43 1012.7
20260510181540 81 150 1.0 9.0 0.00 0.00 0.00 41 1012.7
20260510181019 82 334 2.0 9.0 0.00 0.00 0.00 41 1012.8
20260510180519 82 112 4.0 9.0 0.00 0.00 0.00 42 1012.8
20260510180039 81 323 2.0 9.0 0.00 0.00 0.00 43 1012.9
20260510175518 81 236 3.0 9.0 0.00 0.00 0.00 44 1012.9
20260510175018 81 225 1.0 7.0 0.00 0.00 0.00 39 1012.9
20260510174540 80 155 1.0 5.0 0.00 0.00 0.00 43 1013.0
20260510174019 80 9 1.0 7.0 0.00 0.00 0.00 43 1012.9
20260510173519 80 284 2.0 7.0 0.00 0.00 0.00 41 1013.1
20260510173033 81 42 1.0 4.0 0.00 0.00 0.00 42 1013.1
20260510172518 81 207 1.0 5.0 0.00 0.00 0.00 44 1013.1
20260510172018 81 295 2.0 5.0 0.00 0.00 0.00 45 1013.1
20260510171546 81 17 1.0 4.0 0.00 0.00 0.00 46 1013.1
20260510171018 80 190 1.0 4.0 0.00 0.00 0.00 44 1013.1
20260510170518 80 17 1.0 4.0 0.00 0.00 0.00 45 1013.1
20260510170039 80 336 1.0 3.0 0.00 0.00 0.00 44 1013.1
20260510165519 80 51 1.0 5.0 0.00 0.00 0.00 49 1013.1
20260510165019 79 238 2.0 5.0 0.00 0.00 0.00 46 1013.1
20260510164539 79 167 1.0 5.0 0.00 0.00 0.00 46 1013.3
20260510164014 79 83 1.0 5.0 0.00 0.00 0.00 44 1013.3
20260510163515 79 119 1.0 4.0 0.00 0.00 0.00 49 1013.3
20260510163038 79 172 1.0 3.0 0.00 0.00 0.00 47 1013.3
20260510162516 79 185 1.0 5.0 0.00 0.00 0.00 44 1013.4
20260510162017 78 281 2.0 5.0 0.00 0.00 0.00 51 1013.4
20260510161529 78 19 1.0 6.0 0.00 0.00 0.00 47 1013.4
20260510161017 78 224 1.0 6.0 0.00 0.00 0.00 49 1013.4
20260510160515 77 123 2.0 6.0 0.00 0.00 0.00 51 1013.4
20260510160038 77 208 2.0 6.0 0.00 0.00 0.00 52 1013.5
20260510155514 77 189 1.0 5.0 0.00 0.00 0.00 47 1013.5
20260510155016 77 219 1.0 6.0 0.00 0.00 0.00 51 1013.6
20260510154535 77 60 2.0 6.0 0.00 0.00 0.00 51 1013.6
20260510154015 76 171 1.0 5.0 0.00 0.00 0.00 51 1013.7
20260510153515 76 175 1.0 5.0 0.00 0.00 0.00 52 1013.6
20260510153034 76 220 2.0 5.0 0.00 0.00 0.00 52 1013.5
20260510152514 76 258 1.0 5.0 0.00 0.00 0.00 53 1013.5
20260510152015 76 126 1.0 7.0 0.00 0.00 0.00 53 1013.5
20260510151529 76 213 2.0 7.0 0.00 0.00 0.00 52 1013.5
20260510151018 76 177 1.0 5.0 0.00 0.00 0.00 53 1013.4
20260510150517 76 101 1.0 5.0 0.00 0.00 0.00 56 1013.3
20260510150040 75 322 1.0 2.0 0.00 0.00 0.00 53 1013.3
20260510145517 75 45 1.0 4.0 0.00 0.00 0.00 49 1013.3
20260510145015 75 30 1.0 4.0 0.00 0.00 0.00 59 1013.3
20260510144535 74 23 1.0 4.0 0.00 0.00 0.00 57 1013.2
20260510144017 74 134 2.0 4.0 0.00 0.00 0.00 57 1013.1
20260510143515 74 38 0.0 2.0 0.00 0.00 0.00 57 1013.1
20260510143033 74 123 1.0 3.0 0.00 0.00 0.00 55 1013.0
20260510142518 74 79 1.0 3.0 0.00 0.00 0.00 54 1012.8
20260510142018 73 334 1.0 3.0 0.00 0.00 0.00 55 1012.9
20260510141532 73 0 0.0 4.0 0.00 0.00 0.00 55 1013.0
20260510141019 72 0 0.0 4.0 0.00 0.00 0.00 56 1013.1
20260510140517 72 190 0.0 4.0 0.00 0.00 0.00 57 1013.2
20260510140031 71 153 2.0 4.0 0.00 0.00 0.00 61 1013.2
20260510135517 71 198 2.0 4.0 0.00 0.00 0.00 57 1013.2
20260510135015 71 348 1.0 3.0 0.00 0.00 0.00 63 1013.2
20260510134535 71 11 1.0 3.0 0.00 0.00 0.00 58 1013.2
20260510134015 70 194 1.0 3.0 0.00 0.00 0.00 66 1013.2
20260510133515 70 141 0.0 2.0 0.00 0.00 0.00 65 1013.2
20260510133032 70 213 1.0 3.0 0.00 0.00 0.00 64 1013.1
20260510132515 69 336 1.0 3.0 0.00 0.00 0.00 65 1013.1
20260510132014 69 0 0.0 2.0 0.00 0.00 0.00 68 1013.1
20260510131532 68 0 0.0 2.0 0.00 0.00 0.00 69 1013.0
20260510131015 67 0 0.0 2.0 0.00 0.00 0.00 73 1013.1
20260510130515 66 188 0.0 4.0 0.00 0.00 0.00 75 1013.3
20260510130033 66 190 1.0 4.0 0.00 0.00 0.00 73 1013.3
20260510125519 65 221 1.0 2.0 0.00 0.00 0.00 72 1013.4
20260510125014 65 190 0.0 2.0 0.00 0.00 0.00 73 1013.5
20260510124542 64 301 0.0 2.0 0.00 0.00 0.00 76 1013.5
20260510124014 64 82 0.0 2.0 0.00 0.00 0.00 75 1013.5
20260510123515 63 68 0.0 2.0 0.00 0.00 0.00 79 1013.4
20260510123032 62 0 0.0 2.0 0.00 0.00 0.00 79 1013.5
20260510122515 61 0 0.0 2.0 0.00 0.00 0.00 79 1013.4
20260510122015 61 0 0.0 2.0 0.00 0.00 0.00 81 1013.4
20260510121532 60 0 0.0 2.0 0.00 0.00 0.00 87 1013.4
20260510121016 59 0 0.0 2.0 0.00 0.00 0.00 84 1013.3
20260510120517 58 0 0.0 2.0 0.00 0.00 0.00 87 1013.2
20260510120032 57 0 0.0 2.0 0.00 0.00 0.00 89 1013.3
20260510115518 56 0 0.0 2.0 0.00 0.00 0.00 91 1013.2
20260510115016 55 0 0.0 2.0 0.00 0.00 0.00 97 1013.2
20260510114533 54 63 0.0 2.0 0.00 0.00 0.00 97 1013.2
20260510114016 53 0 0.0 2.0 0.00 0.00 0.00 97 1013.1
20260510113514 53 0 0.0 0.0 0.00 0.00 0.00 97 1013.1
20260510113037 52 0 0.0 2.0 0.00 0.00 0.00 97 1012.9
20260510112519 51 0 0.0 2.0 0.00 0.00 0.00 97 1012.8
20260510112015 51 0 0.0 2.0 0.00 0.00 0.00 97 1012.7
20260510111538 50 0 0.0 0.0 0.00 0.00 0.00 97 1012.7
20260510111014 50 0 0.0 2.0 0.00 0.00 0.00 96 1012.5
20260510110515 50 0 0.0 2.0 0.00 0.00 0.00 96 1012.5
20260510110037 50 0 0.0 2.0 0.00 0.00 0.00 96 1012.5
20260510105515 49 0 0.0 0.0 0.00 0.00 0.00 96 1012.5
20260510105015 49 0 0.0 0.0 0.00 0.00 0.00 96 1012.4
20260510104532 49 0 0.0 0.0 0.00 0.00 0.00 96 1012.1
20260510104014 49 0 0.0 0.0 0.00 0.00 0.00 96 1011.9
20260510103517 49 0 0.0 0.0 0.00 0.00 0.00 95 1011.9
20260510103034 49 0 0.0 2.0 0.00 0.00 0.00 95 1011.8
20260510102518 49 0 0.0 2.0 0.00 0.00 0.00 95 1011.8
20260510102022 49 0 0.0 2.0 0.00 0.00 0.00 96 1011.6
20260510101539 49 0 0.0 0.0 0.00 0.00 0.00 95 1011.6
20260510101018 49 0 0.0 0.0 0.00 0.00 0.00 95 1011.6
20260510100518 49 0 0.0 2.0 0.00 0.00 0.00 95 1011.6
20260510100038 49 0 0.0 2.0 0.00 0.00 0.00 95 1011.6
20260510095518 49 109 0.0 2.0 0.00 0.00 0.00 95 1011.6
20260510095018 49 0 0.0 0.0 0.00 0.00 0.00 95 1011.7
20260510094533 50 0 0.0 0.0 0.00 0.00 0.00 95 1011.7
20260510094018 50 0 0.0 2.0 0.00 0.00 0.00 95 1011.6
20260510093519 50 0 0.0 2.0 0.00 0.00 0.00 95 1011.7
20260510093055 50 109 0.0 2.0 0.00 0.00 0.00 95 1011.8
20260510092519 50 98 0.0 0.0 0.00 0.00 0.00 95 1011.7
20260510092018 50 0 0.0 0.0 0.00 0.00 0.00 95 1011.6
20260510091532 50 0 0.0 0.0 0.00 0.00 0.00 95 1011.4
20260510091018 50 0 0.0 0.0 0.00 0.00 0.00 95 1011.5
20260510090518 50 0 0.0 0.0 0.00 0.00 0.00 95 1011.4
20260510090050 50 0 0.0 0.0 0.00 0.00 0.00 95 1011.3
20260510085518 50 0 0.0 0.0 0.00 0.00 0.00 95 1011.3
20260510085020 50 0 0.0 0.0 0.00 0.00 0.00 95 1011.2
20260510084539 50 0 0.0 0.0 0.00 0.00 0.00 96 1011.2
20260510084020 50 0 0.0 0.0 0.00 0.00 0.00 95 1011.2
20260510083518 50 0 0.0 0.0 0.00 0.00 0.00 95 1011.2
20260510083032 50 0 0.0 0.0 0.00 0.00 0.00 95 1011.2
20260510082518 50 0 0.0 0.0 0.00 0.00 0.00 94 1011.2
20260510082018 50 0 0.0 0.0 0.00 0.00 0.00 94 1011.1
20260510081533 50 0 0.0 0.0 0.00 0.00 0.00 94 1011.0
20260510081019 50 0 0.0 0.0 0.00 0.00 0.00 94 1010.8
20260510080519 51 0 0.0 0.0 0.00 0.00 0.00 94 1010.8
20260510080045 51 0 0.0 0.0 0.00 0.00 0.00 94 1010.6
20260510075517 51 0 0.0 0.0 0.00 0.00 0.00 94 1010.5
20260510075021 51 0 0.0 0.0 0.00 0.00 0.00 94 1010.4
20260510074540 51 0 0.0 0.0 0.00 0.00 0.00 94 1010.3
20260510074019 51 0 0.0 0.0 0.00 0.00 0.00 94 1010.3
20260510073519 51 0 0.0 0.0 0.00 0.00 0.00 94 1010.4
20260510073039 51 0 0.0 0.0 0.00 0.00 0.00 94 1010.3
20260510072519 51 0 0.0 0.0 0.00 0.00 0.00 94 1010.3
20260510072018 52 0 0.0 0.0 0.00 0.00 0.00 94 1010.3
20260510071535 52 0 0.0 0.0 0.00 0.00 0.00 94 1010.4
20260510071018 52 0 0.0 0.0 0.00 0.00 0.00 94 1010.3
20260510070515 52 0 0.0 0.0 0.00 0.00 0.00 94 1010.2
20260510070033 52 0 0.0 0.0 0.00 0.00 0.00 94 1010.2
20260510065519 52 0 0.0 0.0 0.00 0.00 0.00 94 1010.1
20260510065017 52 0 0.0 0.0 0.00 0.00 0.00 94 1010.0
20260510064534 52 0 0.0 0.0 0.00 0.00 0.00 94 1010.1
20260510064015 52 0 0.0 0.0 0.00 0.00 0.00 94 1010.0
20260510063519 53 0 0.0 0.0 0.00 0.00 0.00 93 1010.0
20260510063031 53 0 0.0 0.0 0.00 0.00 0.00 93 1010.1
20260510062516 53 0 0.0 0.0 0.00 0.00 0.00 93 1010.0
20260510062015 53 0 0.0 0.0 0.00 0.00 0.00 93 1010.1
20260510061531 53 0 0.0 0.0 0.00 0.00 0.00 93 1010.0
20260510061017 53 0 0.0 0.0 0.00 0.00 0.00 93 1010.0
20260510060515 53 0 0.0 0.0 0.00 0.00 0.00 93 1010.0
20260510060034 53 0 0.0 0.0 0.00 0.00 0.00 93 1010.1
20260510055518 53 0 0.0 0.0 0.00 0.00 0.00 92 1010.1
20260510055015 53 0 0.0 0.0 0.00 0.00 0.00 93 1010.1
20260510054532 54 0 0.0 0.0 0.00 0.00 0.00 93 1010.2
20260510054016 54 0 0.0 0.0 0.00 0.00 0.00 92 1010.2
20260510053514 54 0 0.0 1.0 0.00 0.00 0.00 92 1010.1
20260510053033 54 0 0.0 1.0 0.00 0.00 0.00 92 1010.2
20260510052515 54 0 0.0 1.0 0.00 0.00 0.00 92 1010.1
20260510052017 54 0 0.0 1.0 0.00 0.00 0.00 92 1010.1
20260510051533 54 84 0.0 1.0 0.00 0.00 0.00 92 1010.1
20260510051016 54 0 0.0 0.0 0.00 0.00 0.00 92 1010.1
20260510050518 54 0 0.0 0.0 0.00 0.00 0.00 92 1010.1
20260510050031 54 0 0.0 2.0 0.00 0.00 0.00 92 1010.2
20260510045515 55 0 0.0 2.0 0.00 0.00 0.00 92 1010.2
20260510045016 55 0 0.0 2.0 0.00 0.00 0.00 92 1010.2
20260510044542 55 0 0.0 1.0 0.00 0.00 0.00 92 1010.2
20260510044016 55 84 0.0 1.0 0.00 0.00 0.00 91 1010.3
20260510043516 55 0 0.0 0.0 0.00 0.00 0.00 91 1010.3
20260510043032 55 0 0.0 0.0 0.00 0.00 0.00 91 1010.3
20260510042514 55 0 0.0 0.0 0.00 0.00 0.00 91 1010.4
20260510042016 55 0 0.0 0.0 0.00 0.00 0.00 90 1010.2
20260510041532 55 0 0.0 0.0 0.00 0.00 0.00 90 1010.2
20260510041017 56 0 0.0 0.0 0.00 0.00 0.00 90 1010.2
20260510040516 56 0 0.0 0.0 0.00 0.00 0.00 90 1010.1
20260510040032 56 0 0.0 0.0 0.00 0.00 0.00 90 1010.1
20260510035516 56 0 0.0 0.0 0.00 0.00 0.00 90 1010.1
20260510035015 56 0 0.0 2.0 0.00 0.00 0.00 89 1010.1
20260510034535 56 0 0.0 2.0 0.00 0.00 0.00 89 1010.1
20260510034014 56 0 0.0 0.0 0.00 0.00 0.00 89 1010.0
20260510033515 57 0 0.0 0.0 0.00 0.00 0.00 88 1010.1
20260510033032 57 0 0.0 0.0 0.00 0.00 0.00 88 1010.1
20260510032516 57 0 0.0 0.0 0.00 0.00 0.00 88 1010.0
20260510032017 57 0 0.0 0.0 0.00 0.00 0.00 88 1010.1
20260510031540 57 0 0.0 0.0 0.00 0.00 0.00 87 1010.0
20260510031016 58 0 0.0 0.0 0.00 0.00 0.00 87 1010.0
20260510030518 58 0 0.0 0.0 0.00 0.00 0.00 86 1009.9
20260510030038 58 0 0.0 0.0 0.00 0.00 0.00 86 1009.9
20260510025515 58 0 0.0 0.0 0.00 0.00 0.00 86 1009.9
20260510025018 59 0 0.0 2.0 0.00 0.00 0.00 85 1009.9
20260510024531 59 0 0.0 2.0 0.00 0.00 0.00 85 1009.8
20260510024015 59 0 0.0 2.0 0.00 0.00 0.00 85 1009.8
20260510023519 59 0 0.0 2.0 0.00 0.00 0.00 84 1009.9
20260510023033 59 0 0.0 1.0 0.00 0.00 0.00 84 1009.8
20260510022518 59 0 0.0 1.0 0.00 0.00 0.00 84 1009.8
20260510022014 59 0 0.0 1.0 0.00 0.00 0.00 84 1009.9
20260510021534 59 0 0.0 1.0 0.00 0.00 0.00 83 1009.8
20260510021014 60 0 0.0 2.0 0.00 0.00 0.00 83 1009.8
20260510020517 60 0 0.0 2.0 0.00 0.00 0.00 83 1009.8
20260510020031 60 0 0.0 2.0 0.00 0.00 0.00 83 1009.7
20260510015520 60 0 0.0 2.0 0.00 0.00 0.00 83 1009.6
20260510015015 61 88 0.0 2.0 0.00 0.00 0.00 82 1009.5
20260510014530 61 0 0.0 2.0 0.00 0.00 0.00 81 1009.4
20260510014015 61 88 0.0 2.0 0.00 0.00 0.00 81 1009.3
20260510013517 61 0 0.0 2.0 0.00 0.00 0.00 80 1009.3
20260510013033 62 78 0.0 2.0 0.00 0.00 0.00 80 1009.3
20260510012515 62 0 0.0 2.0 0.00 0.00 0.00 80 1009.3
20260510012019 62 140 0.0 2.0 0.00 0.00 0.00 79 1009.3
20260510011532 62 0 0.0 2.0 0.00 0.00 0.00 78 1009.2
20260510011017 62 128 0.0 2.0 0.00 0.00 0.00 77 1009.1
20260510010517 63 0 0.0 2.0 0.00 0.00 0.00 77 1009.1
20260510010038 63 92 0.0 2.0 0.00 0.00 0.00 76 1009.1
20260510005516 63 98 0.0 2.0 0.00 0.00 0.00 75 1009.0
20260510005018 63 98 0.0 2.0 0.00 0.00 0.00 75 1009.0
20260510004532 64 0 0.0 2.0 0.00 0.00 0.00 74 1009.1
20260510004019 64 90 0.0 2.0 0.00 0.00 0.00 73 1009.0
20260510003515 64 0 0.0 2.0 0.00 0.00 0.00 72 1009.0
20260510003034 64 120 0.0 2.0 0.00 0.00 0.00 71 1008.8
20260510002514 65 0 0.0 2.0 0.00 0.00 0.00 71 1009.0
20260510002014 65 0 0.0 2.0 0.00 0.00 0.00 71 1008.9
20260510001532 65 119 0.0 2.0 0.00 0.00 0.00 70 1008.9
20260510001017 66 99 0.0 2.0 0.00 0.00 0.00 70 1008.9
20260510000515 66 0 0.0 2.0 0.00 0.00 0.00 69 1008.9
20260510000030 66 51 0.0 2.0 0.00 0.00 0.00 69 1008.8
20260509235517 66 0 0.0 3.0 0.00 0.00 0.00 69 1008.7
20260509235015 67 0 0.0 3.0 0.00 0.00 0.00 69 1008.7
20260509234530 67 119 0.0 2.0 0.00 0.00 0.00 69 1008.6
20260509234017 67 0 0.0 2.0 0.00 0.00 0.00 68 1008.5
20260509233516 67 91 0.0 2.0 0.00 0.00 0.00 68 1008.5
20260509233036 67 0 0.0 2.0 0.00 0.00 0.00 68 1008.5
20260509232517 67 140 0.0 3.0 0.00 0.00 0.00 67 1008.5
20260509232017 68 108 0.0 4.0 0.00 0.00 0.00 67 1008.5
20260509231533 68 133 0.0 4.0 0.00 0.00 0.00 66 1008.5
20260509231015 68 120 1.0 4.0 0.00 0.00 0.00 65 1008.3
20260509230518 68 221 0.0 2.0 0.00 0.00 0.00 62 1008.4
20260509230033 69 93 0.0 2.0 0.00 0.00 0.00 65 1008.4
20260509225519 69 245 0.0 2.0 0.00 0.00 0.00 62 1008.5
20260509225017 69 94 1.0 4.0 0.00 0.00 0.00 66 1008.4
20260509224537 69 130 0.0 4.0 0.00 0.00 0.00 66 1008.3
20260509224015 69 160 0.0 3.0 0.00 0.00 0.00 66 1008.4
20260509223515 68 78 1.0 4.0 0.00 0.00 0.00 66 1008.4
20260509223034 68 64 0.0 4.0 0.00 0.00 0.00 62 1008.4
20260509222515 68 78 1.0 4.0 0.00 0.00 0.00 64 1008.5
20260509222017 69 86 0.0 3.0 0.00 0.00 0.00 65 1008.4
20260509221531 69 180 1.0 3.0 0.00 0.00 0.00 65 1008.4
20260509221020 69 79 1.0 4.0 0.00 0.00 0.00 62 1008.4
20260509220520 69 0 1.0 4.0 0.00 0.00 0.00 62 1008.4
20260509220032 69 111 0.0 4.0 0.00 0.00 0.00 62 1008.4
20260509215517 69 69 1.0 4.0 0.00 0.00 0.00 64 1008.4
20260509215018 69 35 1.0 3.0 0.00 0.00 0.00 65 1008.5
20260509214542 69 124 1.0 3.0 0.00 0.00 0.00 64 1008.5
20260509214019 68 97 1.0 3.0 0.00 0.00 0.00 64 1008.5
20260509213518 68 56 0.0 2.0 0.00 0.00 0.00 66 1008.5
20260509213033 68 0 0.0 3.0 0.00 0.00 0.00 68 1008.5
20260509212517 68 0 0.0 3.0 0.00 0.00 0.00 64 1008.5
20260509212022 68 83 1.0 4.0 0.00 0.00 0.00 66 1008.5